K5TWC Weather Reports


time (UTC)temp
F
wind
direction
speed
knots
gust
knots
rain 1hr
in
rain 24hr
in
rain mn
in
humidity
%
barometer
mb
20260902040029 88 165 2.6 8.7 0.00 0.00 0.00 63 1015.5
20260902035503 89 163 0.9 10.4 0.00 0.00 0.00 63 1015.4
20260902035003 89 157 3.5 11.3 0.00 0.00 0.00 62 1015.4
20260902034510 89 159 3.5 11.3 0.00 0.00 0.00 61 1015.3
20260902034004 89 217 3.5 12.2 0.00 0.00 0.00 59 1015.3
20260902033504 89 127 2.6 12.2 0.00 0.00 0.00 59 1015.2
20260902033014 89 128 2.6 6.1 0.00 0.00 0.00 61 1015.2
20260902032511 89 138 0.0 0.9 0.00 0.00 0.00 61 1015.1
20260902032011 89 138 0.0 0.9 0.00 0.00 0.00 60 1015.0
20260902031537 90 138 0.0 0.0 0.00 0.00 0.00 60 1015.0
20260902031012 90 138 0.0 0.0 0.00 0.00 0.00 59 1015.0
20260902030515 90 138 0.0 2.6 0.00 0.00 0.00 58 1014.9
20260902030024 90 138 0.0 4.3 0.00 0.00 0.00 58 1014.9
20260902025512 91 138 1.7 4.3 0.00 0.00 0.00 58 1014.7
20260902025012 91 140 0.0 1.7 0.00 0.00 0.00 58 1014.7
20260902024530 91 140 0.0 4.3 0.00 0.00 0.00 56 1014.7
20260902024007 91 140 0.0 4.3 0.00 0.00 0.00 56 1014.6
20260902023502 91 142 0.0 3.5 0.00 0.00 0.00 56 1014.5
20260902023020 91 140 0.9 4.3 0.00 0.00 0.00 56 1014.4
20260902022504 92 136 0.9 4.3 0.00 0.00 0.00 56 1014.4
20260902022009 92 134 0.9 4.3 0.00 0.00 0.00 56 1014.2
20260902021518 92 150 0.0 2.6 0.00 0.00 0.00 55 1014.1
20260902021010 92 150 0.0 4.3 0.00 0.00 0.00 55 1014.0
20260902020509 92 151 0.9 4.3 0.00 0.00 0.00 55 1014.0
20260902020024 92 165 0.0 0.9 0.00 0.00 0.00 55 1014.0
20260902015510 92 165 0.0 3.5 0.00 0.00 0.00 55 1013.8
20260902015010 92 165 0.0 3.5 0.00 0.00 0.00 55 1013.8
20260902014536 92 165 0.0 3.5 0.00 0.00 0.00 54 1013.7
20260902014012 93 166 0.0 3.5 0.00 0.00 0.00 55 1013.6
20260902013515 93 167 0.0 2.6 0.00 0.00 0.00 55 1013.6
20260902013032 93 167 0.0 2.6 0.00 0.00 0.00 55 1013.6
20260902012507 93 168 0.0 3.5 0.00 0.00 0.00 55 1013.6
20260902012003 94 167 0.0 3.5 0.00 0.00 0.00 56 1013.5
20260902011519 94 162 0.0 6.1 0.00 0.00 0.00 54 1013.5
20260902011007 94 158 0.0 6.1 0.00 0.00 0.00 53 1013.5
20260902010508 95 158 0.0 6.1 0.00 0.00 0.00 52 1013.5
20260902010019 95 161 0.9 6.1 0.00 0.00 0.00 50 1013.4
20260902005510 96 190 0.0 0.0 0.00 0.00 0.00 49 1013.4
20260902005010 96 190 0.0 0.0 0.00 0.00 0.00 49 1013.4
20260902004524 97 190 0.0 0.0 0.00 0.00 0.00 48 1013.4
20260902004012 97 190 0.0 0.0 0.00 0.00 0.00 48 1013.3
20260902003515 97 190 0.0 0.0 0.00 0.00 0.00 46 1013.4
20260902003029 97 190 0.0 0.0 0.00 0.00 0.00 46 1013.4
20260902002518 98 190 0.0 0.0 0.00 0.00 0.00 46 1013.5
20260902002014 98 190 0.0 0.0 0.00 0.00 0.00 46 1013.4
20260902001531 98 190 0.0 0.0 0.00 0.00 0.00 46 1013.5
20260902001006 98 190 0.0 0.0 0.00 0.00 0.00 47 1013.5
20260902000507 97 190 0.0 1.7 0.00 0.00 0.00 46 1013.6
20260902000015 97 188 0.0 1.7 0.00 0.00 0.00 46 1013.6
20260901235506 97 188 0.0 2.6 0.00 0.00 0.00 46 1013.5
20260901235008 98 190 0.0 4.3 0.00 0.00 0.00 46 1013.5
20260901234520 98 133 0.0 7.0 0.00 0.00 0.00 46 1013.6
20260901234008 98 126 0.0 7.0 0.00 0.00 0.00 45 1013.7
20260901233510 98 186 0.0 7.0 0.00 0.00 0.00 46 1013.7
20260901233028 97 153 0.0 6.1 0.00 0.00 0.00 46 1013.7
20260901232515 98 152 2.6 7.0 0.00 0.00 0.00 45 1013.8
20260901232015 98 150 1.7 7.0 0.00 0.00 0.00 45 1013.8
20260901231534 98 143 1.7 7.8 0.00 0.00 0.00 44 1013.9
20260901231015 98 159 0.9 7.8 0.00 0.00 0.00 44 1013.9
20260901230514 99 126 2.6 7.8 0.00 0.00 0.00 44 1013.9
20260901230029 99 150 0.9 7.0 0.00 0.00 0.00 44 1013.9
20260901225506 99 208 0.0 2.6 0.00 0.00 0.00 45 1013.9
20260901225007 98 207 0.0 4.3 0.00 0.00 0.00 46 1013.9
20260901224518 98 179 0.9 4.3 0.00 0.00 0.00 45 1013.9
20260901224015 98 189 0.0 4.3 0.00 0.00 0.00 45 1013.9
20260901223508 98 196 0.0 4.3 0.00 0.00 0.00 45 1013.9
20260901223023 98 175 0.0 3.5 0.00 0.00 0.00 44 1014.0
20260901222509 99 187 0.0 6.1 0.00 0.00 0.00 45 1013.9
20260901222017 99 175 0.0 7.0 0.00 0.00 0.00 45 1013.9
20260901221526 99 172 0.0 7.0 0.00 0.00 0.00 44 1014.0
20260901221014 99 152 2.6 6.1 0.00 0.00 0.00 43 1013.9
20260901220516 99 159 0.9 6.1 0.00 0.00 0.00 43 1014.0
20260901220032 100 157 0.9 6.1 0.00 0.00 0.00 43 1014.0
20260901215516 100 209 0.9 6.1 0.00 0.00 0.00 43 1014.1
20260901215019 100 175 0.0 5.2 0.00 0.00 0.00 42 1014.1
20260901214537 100 201 0.0 5.2 0.00 0.00 0.00 42 1014.1
20260901214007 101 173 0.9 6.1 0.00 0.00 0.00 43 1014.2
20260901213507 101 203 0.9 8.7 0.00 0.00 0.00 43 1014.2
20260901213026 101 159 2.6 8.7 0.00 0.00 0.00 43 1014.2
20260901212508 101 142 0.0 7.8 0.00 0.00 0.00 42 1014.3
20260901212016 101 159 2.6 8.7 0.00 0.00 0.00 42 1014.4
20260901211525 100 128 0.0 8.7 0.00 0.00 0.00 41 1014.4
20260901211013 100 116 2.6 7.8 0.00 0.00 0.00 42 1014.4
20260901210512 100 129 0.9 7.8 0.00 0.00 0.00 41 1014.4
20260901210027 100 140 0.0 7.8 0.00 0.00 0.00 42 1014.5
20260901205516 100 168 1.7 8.7 0.00 0.00 0.00 43 1014.5
20260901205016 99 120 1.7 8.7 0.00 0.00 0.00 43 1014.5
20260901204532 100 86 1.7 8.7 0.00 0.00 0.00 41 1014.5
20260901204018 100 114 0.9 8.7 0.00 0.00 0.00 42 1014.5
20260901203518 100 140 4.3 8.7 0.00 0.00 0.00 42 1014.7
20260901203033 100 136 1.7 8.7 0.00 0.00 0.00 43 1014.7
20260901202508 99 131 0.0 8.7 0.00 0.00 0.00 44 1014.7
20260901202011 100 128 6.1 8.7 0.00 0.00 0.00 44 1014.8
20260901201521 100 144 1.7 6.1 0.00 0.00 0.00 44 1014.9
20260901201013 100 168 0.9 4.3 0.00 0.00 0.00 45 1014.9
20260901200510 99 191 0.0 4.3 0.00 0.00 0.00 46 1014.9
20260901200028 98 134 0.0 2.6 0.00 0.00 0.00 46 1015.0
20260901195512 98 134 0.0 6.1 0.00 0.00 0.00 47 1015.2
20260901195015 98 119 0.0 7.0 0.00 0.00 0.00 47 1015.2
20260901194530 98 115 1.7 7.0 0.00 0.00 0.00 47 1015.4
20260901194016 98 124 1.7 7.0 0.00 0.00 0.00 47 1015.5
20260901193516 99 131 1.7 9.6 0.00 0.00 0.00 48 1015.5
20260901193034 98 146 0.0 9.6 0.00 0.00 0.00 48 1015.6
20260901192521 98 114 2.6 8.7 0.00 0.00 0.00 48 1015.6
20260901192003 98 137 0.0 8.7 0.00 0.00 0.00 49 1015.7
20260901191511 97 136 2.6 8.7 0.00 0.00 0.00 49 1015.8
20260901191001 97 165 1.7 5.2 0.00 0.00 0.00 49 1015.8
20260901190503 97 123 0.0 4.3 0.00 0.00 0.00 50 1015.9
20260901190004 97 134 0.0 4.3 0.00 0.00 0.00 49 1015.8
20260901185503 97 90 0.0 3.5 0.00 0.00 0.00 50 1015.9
20260901185003 98 75 0.0 6.1 0.00 0.00 0.00 50 1016.0
20260901184506 98 128 0.0 7.0 0.00 0.00 0.00 49 1016.1
20260901184003 98 110 2.6 8.7 0.00 0.00 0.00 49 1016.2
20260901183503 98 148 2.6 8.7 0.00 0.00 0.00 49 1016.3
20260901183021 98 128 0.9 7.8 0.00 0.00 0.00 49 1016.4
20260901182504 99 142 0.9 5.2 0.00 0.00 0.00 47 1016.5
20260901182006 100 139 1.7 5.2 0.00 0.00 0.00 46 1016.6
20260901181513 99 238 0.0 6.1 0.00 0.00 0.00 47 1016.7
20260901181008 99 171 0.9 6.1 0.00 0.00 0.00 47 1016.7
20260901180505 99 186 0.0 7.8 0.00 0.00 0.00 46 1016.8
20260901180009 99 222 0.0 7.8 0.00 0.00 0.00 46 1017.0
20260901175502 98 167 0.0 6.1 0.00 0.00 0.00 47 1017.0
20260901175002 99 156 0.9 6.1 0.00 0.00 0.00 47 1017.2
20260901174503 99 147 0.0 4.3 0.00 0.00 0.00 46 1017.3
20260901174005 99 235 0.0 4.3 0.00 0.00 0.00 47 1017.3
20260901173502 98 184 0.0 4.3 0.00 0.00 0.00 46 1017.4
20260901173006 98 198 0.0 3.5 0.00 0.00 0.00 48 1017.4
20260901172504 97 269 0.0 6.1 0.00 0.00 0.00 50 1017.5
20260901172016 96 144 0.9 7.8 0.00 0.00 0.00 50 1017.6
20260901171509 96 159 0.0 7.8 0.00 0.00 0.00 50 1017.6
20260901171004 96 170 0.0 6.1 0.00 0.00 0.00 51 1017.7
20260901170506 95 154 0.0 9.6 0.00 0.00 0.00 54 1017.7
20260901170036 95 126 1.7 9.6 0.00 0.00 0.00 53 1017.8
20260901165508 97 136 4.3 9.6 0.00 0.00 0.00 51 1017.8
20260901165005 98 187 0.0 2.6 0.00 0.00 0.00 51 1017.9
20260901164504 98 195 0.0 5.2 0.00 0.00 0.00 51 1017.9
20260901164003 98 178 0.9 5.2 0.00 0.00 0.00 52 1017.9
20260901163504 98 182 0.0 2.6 0.00 0.00 0.00 52 1017.9
20260901163003 97 177 0.0 2.6 0.00 0.00 0.00 53 1018.0
20260901162502 96 231 0.0 5.2 0.00 0.00 0.00 55 1018.0
20260901162014 95 190 0.0 6.1 0.00 0.00 0.00 55 1018.0
20260901161531 95 157 0.9 7.8 0.00 0.00 0.00 58 1018.0
20260901161016 96 125 2.6 7.8 0.00 0.00 0.00 56 1018.0
20260901160518 96 142 0.9 6.1 0.00 0.00 0.00 56 1017.9
20260901160037 95 175 0.0 7.0 0.00 0.00 0.00 57 1017.9
20260901155507 95 167 0.0 7.0 0.00 0.00 0.00 56 1017.9
20260901155007 95 126 1.7 6.1 0.00 0.00 0.00 56 1017.9
20260901154519 97 119 1.7 6.1 0.00 0.00 0.00 55 1017.9
20260901154009 97 221 0.0 1.7 0.00 0.00 0.00 54 1017.9
20260901153509 96 221 0.0 0.9 0.00 0.00 0.00 55 1017.9
20260901153028 95 221 0.0 1.7 0.00 0.00 0.00 56 1017.9
20260901152514 95 221 0.0 5.2 0.00 0.00 0.00 56 1017.9
20260901152015 94 225 0.0 5.2 0.00 0.00 0.00 57 1017.9
20260901151527 94 263 0.9 5.2 0.00 0.00 0.00 57 1017.8
20260901151015 93 221 0.0 4.3 0.00 0.00 0.00 59 1017.8
20260901150515 93 205 0.0 3.5 0.00 0.00 0.00 59 1017.9
20260901150033 92 209 0.0 4.3 0.00 0.00 0.00 62 1018.0
20260901145514 92 163 0.0 4.3 0.00 0.00 0.00 62 1018.0
20260901145013 93 163 1.7 5.2 0.00 0.00 0.00 61 1018.0
20260901144535 93 167 0.9 5.2 0.00 0.00 0.00 60 1018.1
20260901144012 93 183 0.0 2.6 0.00 0.00 0.00 61 1018.1
20260901143514 93 180 0.0 3.5 0.00 0.00 0.00 61 1018.1
20260901143020 93 184 0.0 3.5 0.00 0.00 0.00 61 1018.2
20260901142511 92 219 0.0 1.7 0.00 0.00 0.00 61 1018.1
20260901142008 92 184 0.0 2.6 0.00 0.00 0.00 62 1018.0
20260901141532 91 183 0.0 2.6 0.00 0.00 0.00 63 1018.0
20260901141018 91 183 0.0 2.6 0.00 0.00 0.00 63 1018.0
20260901140512 91 181 0.0 2.6 0.00 0.00 0.00 63 1017.9
20260901140030 91 191 0.0 0.9 0.00 0.00 0.00 64 1018.0
20260901135516 90 191 0.0 3.5 0.00 0.00 0.00 64 1018.0
20260901135014 90 190 0.0 3.5 0.00 0.00 0.00 65 1018.1
20260901134531 89 198 0.0 0.9 0.00 0.00 0.00 65 1018.2
20260901134015 89 198 0.0 1.7 0.00 0.00 0.00 66 1018.1
20260901133515 88 195 0.0 1.7 0.00 0.00 0.00 67 1018.1
20260901133038 87 193 0.0 0.9 0.00 0.00 0.00 69 1018.1
20260901132508 87 193 0.0 0.9 0.00 0.00 0.00 69 1018.1
20260901132013 86 190 0.0 0.9 0.00 0.00 0.00 71 1018.1
20260901131525 85 190 0.0 2.6 0.00 0.00 0.00 72 1018.1
20260901131014 85 190 0.0 2.6 0.00 0.00 0.00 73 1018.0
20260901130506 84 190 0.0 2.6 0.00 0.00 0.00 74 1018.0
20260901130007 83 198 0.0 2.6 0.00 0.00 0.00 75 1018.0
20260901125503 83 204 0.0 1.7 0.00 0.00 0.00 76 1017.8
20260901125003 82 204 0.0 1.7 0.00 0.00 0.00 77 1017.7
20260901124507 81 204 0.0 1.7 0.00 0.00 0.00 77 1017.7
20260901124003 81 205 0.0 1.7 0.00 0.00 0.00 78 1017.6
20260901123506 80 205 0.0 1.7 0.00 0.00 0.00 78 1017.5
20260901123028 80 205 0.0 0.9 0.00 0.00 0.00 78 1017.5
20260901122508 79 205 0.0 0.9 0.00 0.00 0.00 78 1017.4
20260901122007 79 206 0.0 0.0 0.00 0.00 0.00 78 1017.3
20260901121520 79 206 0.0 0.0 0.00 0.00 0.00 78 1017.3
20260901121013 79 206 0.0 0.0 0.00 0.00 0.00 77 1017.2
20260901120508 80 206 0.0 0.0 0.00 0.00 0.00 77 1017.1
20260901120024 80 206 0.0 0.0 0.00 0.00 0.00 77 1017.0
20260901115510 80 206 0.0 0.0 0.00 0.00 0.00 77 1017.0
20260901115003 80 206 0.0 0.0 0.00 0.00 0.00 76 1017.0
20260901114505 80 206 0.0 0.0 0.00 0.00 0.00 76 1016.9
20260901114003 80 206 0.0 0.0 0.00 0.00 0.00 76 1017.0
20260901113504 80 206 0.0 0.0 0.00 0.00 0.00 76 1016.9
20260901113008 80 206 0.0 0.9 0.00 0.00 0.00 76 1016.8
20260901112503 80 206 0.0 0.9 0.00 0.00 0.00 76 1016.8
20260901112007 80 206 0.0 0.9 0.00 0.00 0.00 75 1016.8
20260901111517 80 206 0.0 0.9 0.00 0.00 0.00 75 1016.7
20260901111007 81 206 0.0 0.9 0.00 0.00 0.00 75 1016.8
20260901110508 81 206 0.0 0.0 0.00 0.00 0.00 75 1016.7
20260901110022 81 206 0.0 0.9 0.00 0.00 0.00 74 1016.7
20260901105513 81 206 0.0 0.9 0.00 0.00 0.00 74 1016.7
20260901105010 81 206 0.0 0.9 0.00 0.00 0.00 73 1016.6
20260901104528 81 206 0.0 0.0 0.00 0.00 0.00 73 1016.6
20260901104004 81 206 0.0 0.0 0.00 0.00 0.00 73 1016.7
20260901103503 81 206 0.0 0.0 0.00 0.00 0.00 72 1016.7
20260901103005 82 206 0.0 0.9 0.00 0.00 0.00 72 1016.7
20260901102504 82 206 0.0 0.9 0.00 0.00 0.00 71 1016.8
20260901102003 82 206 0.0 0.0 0.00 0.00 0.00 71 1016.8
20260901101513 82 206 0.0 0.9 0.00 0.00 0.00 71 1016.8
20260901101007 82 206 0.0 2.6 0.00 0.00 0.00 71 1016.7
20260901100507 82 206 0.0 2.6 0.00 0.00 0.00 71 1016.8
20260901100018 82 212 0.0 2.6 0.00 0.00 0.00 71 1016.8
20260901095508 82 188 0.0 2.6 0.00 0.00 0.00 71 1016.9
20260901095008 82 188 0.0 2.6 0.00 0.00 0.00 70 1017.0
20260901094524 82 174 0.0 0.9 0.00 0.00 0.00 70 1016.9
20260901094014 83 172 0.0 0.9 0.00 0.00 0.00 70 1017.0
20260901093513 83 171 0.0 0.9 0.00 0.00 0.00 70 1017.0
20260901093028 83 171 0.0 0.9 0.00 0.00 0.00 69 1017.0
20260901092503 83 166 0.0 0.9 0.00 0.00 0.00 69 1017.0
20260901092003 83 165 0.0 4.3 0.00 0.00 0.00 69 1017.0
20260901091507 83 165 0.0 4.3 0.00 0.00 0.00 69 1017.0
20260901091003 83 159 0.0 3.5 0.00 0.00 0.00 69 1016.9
20260901090504 83 159 0.0 4.3 0.00 0.00 0.00 69 1016.8
20260901090017 83 159 0.0 4.3 0.00 0.00 0.00 69 1016.8
20260901085506 84 159 0.0 4.3 0.00 0.00 0.00 68 1016.7
20260901085008 84 157 0.0 4.3 0.00 0.00 0.00 68 1016.7
20260901084518 84 166 0.0 3.5 0.00 0.00 0.00 68 1016.7
20260901084010 84 167 0.0 3.5 0.00 0.00 0.00 68 1016.7
20260901083510 84 167 0.0 7.0 0.00 0.00 0.00 68 1016.7
20260901083028 84 169 0.9 7.0 0.00 0.00 0.00 67 1016.6
20260901082512 84 193 0.0 2.6 0.00 0.00 0.00 67 1016.6
20260901082016 84 195 0.0 0.9 0.00 0.00 0.00 66 1016.6
20260901081528 84 196 0.0 0.9 0.00 0.00 0.00 65 1016.6
20260901081004 85 196 0.0 4.3 0.00 0.00 0.00 64 1016.6
20260901080504 85 196 0.0 4.3 0.00 0.00 0.00 64 1016.5
20260901080010 85 199 0.0 3.5 0.00 0.00 0.00 63 1016.5
20260901075505 85 214 0.0 3.5 0.00 0.00 0.00 63 1016.5
20260901075010 85 219 0.0 3.5 0.00 0.00 0.00 63 1016.5
20260901074516 85 211 0.0 5.2 0.00 0.00 0.00 64 1016.5
20260901074012 85 193 0.0 5.2 0.00 0.00 0.00 63 1016.4
20260901073508 85 205 0.0 5.2 0.00 0.00 0.00 63 1016.5
20260901073035 86 198 0.9 5.2 0.00 0.00 0.00 63 1016.5
20260901072513 86 153 0.9 5.2 0.00 0.00 0.00 62 1016.5
20260901072012 86 181 1.7 6.1 0.00 0.00 0.00 62 1016.5
20260901071528 86 155 0.9 6.1 0.00 0.00 0.00 62 1016.5
20260901071014 86 155 0.0 6.1 0.00 0.00 0.00 62 1016.5
20260901070514 86 184 0.9 7.0 0.00 0.00 0.00 62 1016.4
20260901070032 86 161 1.7 7.0 0.00 0.00 0.00 61 1016.4
20260901065506 86 165 0.0 4.3 0.00 0.00 0.00 62 1016.5
20260901065006 86 167 0.0 6.1 0.00 0.00 0.00 61 1016.5
20260901064515 86 167 0.0 6.1 0.00 0.00 0.00 60 1016.4
20260901064006 86 158 0.0 2.6 0.00 0.00 0.00 60 1016.4
20260901063509 86 158 0.0 4.3 0.00 0.00 0.00 60 1016.4
20260901063022 86 157 0.0 4.3 0.00 0.00 0.00 60 1016.4
20260901062510 86 159 0.0 4.3 0.00 0.00 0.00 59 1016.3
20260901062013 86 160 0.0 6.1 0.00 0.00 0.00 59 1016.3
20260901061524 87 157 0.0 6.1 0.00 0.00 0.00 58 1016.2
20260901061012 87 163 0.0 7.0 0.00 0.00 0.00 58 1016.2
20260901060513 87 141 0.9 7.0 0.00 0.00 0.00 58 1016.1
20260901060038 87 135 0.9 7.0 0.00 0.00 0.00 58 1016.1
20260901055513 87 138 1.7 7.0 0.00 0.00 0.00 57 1016.0
20260901055020 87 137 1.7 7.0 0.00 0.00 0.00 57 1016.0
20260901054530 87 124 0.9 8.7 0.00 0.00 0.00 57 1016.0
20260901054008 88 129 1.7 8.7 0.00 0.00 0.00 57 1015.9
20260901053508 88 128 1.7 7.8 0.00 0.00 0.00 56 1015.9
20260901053015 88 134 3.5 8.7 0.00 0.00 0.00 56 1015.9
20260901052509 88 132 2.6 8.7 0.00 0.00 0.00 56 1015.8
20260901052011 88 146 0.9 8.7 0.00 0.00 0.00 55 1015.8
20260901051522 88 121 1.7 10.4 0.00 0.00 0.00 55 1015.8
20260901051010 88 102 2.6 10.4 0.00 0.00 0.00 55 1015.8
20260901050512 88 154 1.7 8.7 0.00 0.00 0.00 55 1015.7
20260901050027 88 154 0.9 7.0 0.00 0.00 0.00 55 1015.6
20260901045513 88 154 0.9 7.0 0.00 0.00 0.00 55 1015.6
20260901045014 88 136 0.9 4.3 0.00 0.00 0.00 54 1015.6
20260901044528 88 141 0.0 3.5 0.00 0.00 0.00 54 1015.6
20260901044019 88 139 0.0 3.5 0.00 0.00 0.00 54 1015.5
20260901043517 88 131 0.0 2.6 0.00 0.00 0.00 54 1015.5
20260901043032 88 130 0.0 2.6 0.00 0.00 0.00 54 1015.5
20260901042506 88 128 0.0 0.0 0.00 0.00 0.00 54 1015.5
20260901042006 88 128 0.0 2.6 0.00 0.00 0.00 54 1015.4
20260901041517 88 128 0.0 3.5 0.00 0.00 0.00 54 1015.5
20260901041009 88 128 0.0 4.3 0.00 0.00 0.00 53 1015.5
20260901040511 89 128 0.0 4.3 0.00 0.00 0.00 53 1015.4